Aérodrome :
LOGIN :

S'inscrire | Disclaimer

   EN    FR    IT 

 










Légende :    VFR   VFR Marginal   IFR   IFR Intensif   IFR Très Intensif
Visi : 
Plafond : 
>= 8 km
>= 3000ft
5 à 8 km
1000 à 3000 ft
1500m à 5 km
500 à 1000 ft
800 à 1500m
200 à 500 ft
< 800m
< 200 ft
Symboles :   Orages  Brouillard  Fortes neiges  Fortes précipitations  Vent > 20 kt
SIGMETs :   Divers  Orages  Givrage  Turbulence  Onde Orograph.  Cendres Volcan.






- Altitude de l'aérodrome : 327 ft
- Code IATA : BHX


EGBB - Birmingham

DERNIER METAR :
  • 251550Z 31011KT 9999 SCT047 11/01 Q1028

METARs EXPIRÉS :
  • 251520Z 29010KT CAVOK 11/M01 Q1027
  • 251450Z 29009KT 9999 FEW045 11/01 Q1027
  • 251420Z 29009KT 9999 FEW040 11/00 Q1027
  • 251350Z 26010KT 9999 SCT037 11/01 Q1027
  • 251320Z 27007KT 220V310 9999 SCT038 11/02 Q1027

TAF TAF EGBB
Valide du 25 à 12h jusqu'au 26 à 12h UTC


251055Z 2512/2612 26006KT 9999 FEW030
PROB30
TEMPO 2512/2516 8000 -SHRA
PROB40 2603/2609 3000 BR
ATIS : +44 121 780 0910



MET'MAP, la Météo Aéronautique d'un coup d'oeil ! - Copyright ORBIFLY Décembre 2007 - Disclaimer

ORBIFLY MET'MAP TEAM :

Programmation & Développement : Alexandra Zaïnal
Sur une idée originale de : Baudouin d'Aumeries
Assistance à la programmation : Marc-Olivier Méhu
Soutien technique & logistique : Manuel Goepfert

Contact : metmap@orbifly.com




SOURCES & CREDITS :

   NOAA